Change the Weather History Date:

Friday, August 23, 2013

  Actual Average Record
Temperature  
Mean Temperature 94 °F -  
Max Temperature 108 °F 102 °F 109 °F (1999)
Min Temperature 81 °F 78 °F 78 °F (2001)
Cooling Degree Days 30    
Growing Degree Days 44 (Base 50)    
Moisture  
Dew Point 40 °F    
Average Humidity 15    
Maximum Humidity 25    
Minimum Humidity 4    
Precipitation  
Precipitation 0.00 in 0.00 in - ()
Sea Level Pressure  
Sea Level Pressure 29.75 in    
Wind  
Wind Speed 7 mph ()    
Max Wind Speed 12 mph    
Max Gust Speed -    
Visibility 6.0 miles    
Events      
Averages and records for this station are not official NWS values.
T = Trace of Precipitation, MM = Missing Value Source: Averaged Metar Reports

Daily Weather History Graph

Daily Weather History Graph

Search for Another Location

Airport or City:

Trip Planner

Search our weather history database for the weather conditions in past years. The results will help you decide how hot, cold, wet, or windy it might be!

Date:

Astronomy

Aug. 23, 2013 Rise Set
Actual Time 5:27 AM EET 6:15 PM EET
Civil Twilight 5:03 AM EET 6:38 PM EET
Nautical Twilight 4:36 AM EET 7:05 PM EET
Astronomical Twilight 4:08 AM EET 7:33 PM EET
Moon 7:48 PM EET (8/23) 7:36 AM EET (8/23)
Length of Visible Light 13h 34m
Length of Day
12h 48m
Waning Gibbous, 93% of the Moon is Illuminated
Aug 23
Waning Gibbous
Aug 28
Last Quarter
Sep 5
New
Sep 12
First Quarter
Sep 19
Full

Hourly Weather History & Observations

Time (EET) Temp. Dew Point Humidity Pressure Visibility Wind Dir Wind Speed Gust Speed Precip Events Conditions
12:00 AM 87.8 °F 35.6 °F 16% 29.74 in - NNW 4.6 mph - N/A   Clear
1:00 AM 86.0 °F 35.6 °F 17% 29.74 in - NNE 3.5 mph - N/A   Clear
2:00 AM 86.0 °F 39.2 °F 19% 29.74 in - North 5.8 mph - N/A   Clear
3:00 AM 84.2 °F 41.0 °F 22% 29.74 in - North 6.9 mph - N/A   Clear
4:00 AM 80.6 °F 41.0 °F 24% 29.74 in - NNW 8.1 mph - N/A   Clear
5:00 AM 84.2 °F 42.8 °F 23% 29.74 in - NNW 8.1 mph - N/A   Clear
6:00 AM 82.4 °F 42.8 °F 25% 29.74 in - NNW 6.9 mph - N/A   Clear
7:00 AM 84.2 °F 44.6 °F 25% 29.77 in - NNE 6.9 mph - N/A   Clear
8:00 AM 89 °F 47 °F 14% 29.75 in 6 mi North 10.4 mph - -  
8:00 AM 87.8 °F 46.4 °F 24% 29.77 in - North 10.4 mph - N/A   Clear
9:00 AM 93.2 °F 46.4 °F 20% 29.80 in - North 11.5 mph - N/A   Clear
10:00 AM 96.8 °F 46.4 °F 18% 29.80 in - North 11.5 mph - N/A   Clear
11:00 AM 100.4 °F 44.6 °F 15% 29.77 in - North 11.5 mph - N/A   Clear
12:00 PM 104.0 °F 46.4 °F 14% 29.80 in - North 11.5 mph - N/A   Clear
1:00 PM 104.0 °F 46.4 °F 14% 29.74 in - NNW 9.2 mph - N/A   Clear
2:00 PM 106 °F 43 °F 6% 29.68 in 6 mi NNW 10.4 mph - -  
2:00 PM 105.8 °F 42.8 °F 12% 29.74 in - NNW 10.4 mph - N/A   Clear
3:00 PM 105.8 °F 42.8 °F 12% 29.71 in - North 9.2 mph - N/A   Clear
4:00 PM 107.6 °F 39.2 °F 10% 29.71 in - NW 8.1 mph - N/A   Clear
5:00 PM 105.8 °F 42.8 °F 12% 29.71 in - North 10.4 mph - N/A   Clear
6:00 PM 102.2 °F 42.8 °F 13% 29.71 in - North 10.4 mph - N/A   Clear
7:00 PM 100.4 °F 39.2 °F 12% 29.74 in - NNW 8.1 mph - N/A   Clear
8:00 PM 98 °F 26 °F 4% 29.72 in 6 mi NNW 6.9 mph - -  
8:00 PM 96.8 °F 26.6 °F 8% 29.77 in - NNW 6.9 mph - N/A   Clear
9:00 PM 93.2 °F 28.4 °F 10% 29.80 in - North 2.3 mph - N/A   Clear
10:00 PM 93.2 °F 30.2 °F 11% 29.80 in - WNW 3.5 mph - N/A   Clear
11:00 PM 91.4 °F 33.8 °F 13% 29.80 in - WNW 10.4 mph - N/A   Clear